Regional Weather Roundup
Issued by NWS

Home | Current Version | Previous Version | Graphics & Text | Print | Product List | Glossary On
Versions: 1 2 3 4 5 6 7 8 9 10 11 12 13 14 15 16 17 18 19 20 21 22 23 24 25 26 27 28 29 30 31 32 33 34 35 36 37 38 39 40 41 42 43 44 45 46 47 48 49 50
000
ASUS43 KLMK 032110
RWRKY
KENTUCKY REGIONAL WEATHER ROUNDUP
NATIONAL WEATHER SERVICE LOUISVILLE KY
400 PM EST SAT DEC 03 2016

NOTE "FAIR" INDICATES FEW OR NO CLOUDS BELOW 12,000 FEET
WITH NO SIGNIFICANT WEATHER AND/OR OBSTRUCTIONS TO VISIBILITY.

KYZ001>023-026-027-061>063-070>075-032200-
WESTERN AND SOUTH CENTRAL KENTUCKY

CITY           SKY/WX    TMP DP  RH WIND       PRES   REMARKS
PADUCAH        CLOUDY    44  30  57 E9        30.29S
HENDERSON      CLOUDY    45  28  53 E3        30.31S
OWENSBORO      CLOUDY    44  30  57 E6        30.32S
HOPKINSVILLE   CLOUDY    42  31  65 NE7       30.28F
BOWLING GREEN  CLOUDY    44  32  62 E5        30.31F
GLASGOW        CLOUDY    42  32  68 E5        30.30F
$$

KYZ024-025-028>034-038-045-046-053-032200-
NORTH CENTRAL KENTUCKY

CITY           SKY/WX    TMP DP  RH WIND       PRES   REMARKS
LOUISVILLE/SDF CLOUDY    44  26  49 CALM      30.32S
LOUISVILLE/LOU PTSUNNY   44  28  53 NE5       30.33S
FORT KNOX      NOT AVBL
$$

KYZ035>037-039>044-047>052-055>060-089>105-032200-
NORTHEAST KENTUCKY

CITY           SKY/WX    TMP DP  RH WIND       PRES   REMARKS
LEXINGTON      PTSUNNY   42  28  57 CALM      30.31S
COVINGTON      CLOUDY    41  30  65 W5        30.30F
FRANKFORT      CLOUDY    43  27  53 N3        30.30S
$$

KYZ054-064>069-076>088-106>120-032200-
SOUTHEAST KENTUCKY

CITY           SKY/WX    TMP DP  RH WIND       PRES   REMARKS
JACKSON        PTSUNNY   40  28  62 CALM      30.29S
LONDON         PTSUNNY   41  28  60 N5        30.29S
SOMERSET       PTSUNNY   39  30  70 NE5       30.32S
MIDDLESBORO    CLOUDY    42  30  63 CALM      30.29S
MONTICELLO     CLOUDY    42  30  62 NW6       30.32S
$$





USA.gov is the U.S. government's official web portal to all federal, state and local government web resources and services.